Wiarton Airport
CYVV : now visible

Airfield :











YOU CAN JOIN US ON...

 
LOGIN :

Register | Disclaimer

   EN    FR    IT 

 









Legend :    VFR   Marginal VFR   IFR   Intensive IFR   Very Intensive IFR
Visi :
Ceiling :
>= 8 km
>= 3000ft
5 to 8 km
1000 to 3000 ft
1500m to 5 km
500 to 1000 ft
800 to 1500m
200 to 500 ft
< 800m
< 200 ft
Symbols :   Thunderstorms  Fog  Heavy snow  Heavy precipitations  Wind > 20 kt






- Airport Elevation : 729 ft
- IATA code : YVV


CYVV - Wiarton

CURRENT METAR :
  • 212000Z 30010G17KT 240V320 15SM BKN030 M00/M09 A2996 RMK SC7 SLP156

EXPIRED METARs :
  • 211900Z 29011G17KT 260V340 15SM BKN025 M01/M09 A2996 RMK SC7 SLP157
  • 211836Z 29013G21KT 260V340 15SM OVC025 M01/M09 A2996 RMK SC8 WSHFT 1821 SLP156
  • 211800Z 35007KT 290V050 15SM BKN030 M01/M08 A2996 RMK SC7 SLP156

TAF TAF CYVV
Valid from the 21 at 20:00 until the 21 at 23:00 UTC


211942Z 2120/2123 30005KT P6SM BKN025
TEMPO 2120/2122 OVC020
FM212200 28005KT P6SM SCT080 RMK NXT FCST WILL BE ISSUED AT 221045Z
CZYZ FIR / North America



MET'MAP, your aeronautical weather chart ! - Copyright ORBIFLY December 2007 - Disclaimer

ORBIFLY MET'MAP TEAM :

Programming & Development : Alexandra Zaïnal
Concept & original design : Baudouin d'Aumeries
Assistance for programming : Marc-Olivier Méhu
Technical & hardware support : Manuel Goepfert

Contact : metmap@orbifly.com




SOURCES & CREDITS :

   NOAA       Earth
Advisory